Flag for U.S.A. Weather past 2 weeks in St. Petersburg, Florida, U.S.A.

Now
69 °F

Low clouds.


Feels Like: 69 °F
Forecast: 61 / 70 °F
Wind: 3 mph from South

Location: Whitted Airport

Current Time: Mar 6, 2015 at 9:57:26 AM

Latest Report: Mar 6, 2015 at 8:53 AM


Visibility: 8 mi

Pressure: 30.18 "Hg

Humidity: 93%

Dew point: 67 °F

Location of St. PetersburgLocation

Historic Weather in St. Petersburg — Graph

°F

St. Petersburg temperature yesterday

Maximum temperature yesterday: 79 °F (at 12:53 PM)
Minimum temperature yesterday: 66 °F (at 7:01 AM)
Average temperature yesterday: 72 °F

Past Weeks' High & Low Weather Summary

 TemperatureHumidityPressure
High82 °F (Mar 1, 3:53 PM)100% (Feb 23, 6:53 AM)30.42 "Hg (Feb 23, 6:53 AM)
Low40 °F (Feb 20, 6:53 AM)28% (Feb 20, 2:53 PM)29.69 "Hg (Feb 26, 2:53 AM)
Average64 °F80%30.15 "Hg
* Reported Feb 19 8:53 AM — Mar 6 8:53 AM, St. Petersburg, Weather by CustomWeather, © 2015

Note: Actual official high and low records may vary slightly from our data, if they occured in-between our weather recording intervals... More about our weather records

Advertising

St. Petersburg weather history for previous 24 hours

 ConditionsComfort  
Time TempWeatherWind HumidityBarometerVisibility
8:53 AM
Fri, Mar 6
69 °FLow clouds.3 mph93%30.18 "Hg8 mi
8:00 AM69 °FMostly cloudy.No wind90%30.17 "Hg10 mi
6:53 AM67 °FLow clouds.6 mph97%30.15 "Hg8 mi
5:53 AM67 °FFog.3 mph97%30.13 "Hg2 mi
5:04 AM69 °FFog.5 mph96%30.12 "Hg4 mi
4:53 AM69 °FFog.5 mph96%30.11 "Hg2 mi
3:53 AM68 °FFog.5 mph96%30.11 "Hg2 mi
3:03 AM68 °FFog.No wind96%30.11 "Hg1 mi
2:53 AM68 °FFog.No wind100%30.11 "Hg1 mi
2:00 AM68 °FFog.5 mph96%30.11 "Hg1 mi
12:53 AM69 °FFog.7 mph96%30.12 "Hg1 mi
12:01 AM70 °FFog.7 mph97%30.14 "Hg2 mi
11:03 PM
Thu, Mar 5
71 °FPassing clouds.8 mph93%30.14 "Hg7 mi
9:53 PM71 °FClear.3 mph93%30.14 "Hg9 mi
8:53 PM72 °FClear.5 mph91%30.13 "Hg10 mi
7:53 PM73 °FClear.6 mph90%30.11 "Hg10 mi
6:53 PM73 °FPassing clouds.6 mph90%30.09 "Hg10 mi
5:53 PM75 °FPassing clouds.12 mph85%30.08 "Hg10 mi
4:53 PM76 °FScattered clouds.13 mph82%30.07 "Hg10 mi
3:53 PM77 °FPassing clouds.13 mph79%30.06 "Hg10 mi
3:00 PM77 °FBroken clouds.14 mph79%30.08 "Hg10 mi
1:53 PM79 °FPartly sunny.10 mph74%30.09 "Hg10 mi
12:53 PM79 °FSunny.15 mph74%30.10 "Hg10 mi
11:53 AM78 °FPassing clouds.13 mph74%30.11 "Hg10 mi
10:53 AM77 °FPassing clouds.13 mph77%30.12 "Hg10 mi
9:53 AM71 °FMostly cloudy.3 mph93%30.13 "Hg10 mi
Weather by CustomWeather, © 2015

See weather overviewHow to use our weather pages